Regional Weather Roundup
Issued by NWS

Home | Current Version | Previous Version | Graphics & Text | Print | Product List | Glossary On
Versions: 1 2 3 4 5 6 7 8 9 10 11 12 13 14 15 16 17 18 19 20 21 22 23 24 25 26 27 28 29 30 31 32 33 34 35 36 37 38 39 40 41 42 43 44 45 46 47 48 49 50
323
ASUS45 KBOU 270207
RWRCO

WEATHER ROUNDUP FOR COLORADO
NATIONAL WEATHER SERVICE DENVER/BOULDER CO
800 PM MDT FRI AUG 26 2016

NOTE: "FAIR" INDICATES FEW OR NO CLOUDS BELOW 12000 FEET WITH NO
SIGNIFICANT WEATHER AND/OR OBSTRUCTIONS TO VISIBILITY.

COZ001>005-013-030-031-270300-
...NORTHWEST COLORADO...

CITY           SKY/WX    TMP DP  RH WIND       PRES   REMARKS
CRAIG          CLOUDY    56  47  71 S9        30.20F
HAYDEN         FAIR      55  39  54 N7        30.23R
MEEKER         MOCLDY    58  44  60 VRB6      30.22R
MOUNT WERNER   NOT AVBL
STEAMBOAT SPGS MOCLDY    56  41  57 W15G21    30.24R
WALDEN         MOCLDY    52  34  50 N8        30.29S
$$

COZ006>008-011-270300-
...WEST CENTRAL VALLEYS...

CITY           SKY/WX    TMP DP  RH WIND       PRES   REMARKS
GRAND JUNCTION MOCLDY    75  49  39 CALM      30.05R
MONTROSE       FAIR      68  46  45 E3        30.14R
EAGLE          FAIR      66  37  34 SW5       30.18S
RIFLE          FAIR      71  39  31 NW13G22   30.10R
DELTA          FAIR      74  38  26 CALM      30.09R
NUCLA          FAIR     N/A N/A N/A SW6       30.19R
$$

COZ017>023-064>068-270300-
...SOUTHWEST COLORADO...

CITY           SKY/WX    TMP DP  RH WIND       PRES   REMARKS
DURANGO        FAIR      66  39  37 SW7       30.20R
CORTEZ         FAIR      66  47  50 CALM      30.16R
PAGOSA SPRINGS FAIR      56  46  66 N3        30.27S
TELLURIDE      FAIR      53  47  82 SE5       30.38R
WOLF CREEK PAS FAIR      37  36  93 SW13      30.54S
$$

COZ009-010-012-014-032>034-037-058>063-270300-
...CENTRAL COLORADO...

CITY           SKY/WX    TMP DP  RH WIND       PRES   REMARKS
ASPEN          FAIR      55  43  63 S8        30.25R
BUENA VISTA    FAIR      53  40  61 W7        30.26R
COPPER MTN     FAIR      45  27  49 W9        30.52R
BERTHOUD PASS  FAIR      34  23  64 NW12G17   30.52S WCI  25
COTTONWOOD PAS FAIR      55  30  38 W6        30.38R
GUNNISON       MOCLDY    61  37  41 SW8       30.28R
KREMMLING      FAIR      54  41  62 CALM      30.26R
LEADVILLE      FAIR      50  29  44 CALM      30.37R
MONARCH PASS   FAIR      43  30  61 W13       30.61R
SALIDA         FAIR      64  38  38 W5        30.29R
SUNLIGHT       FAIR      48  32  53 CALM      30.46R
WILKERSON PASS MOCLDY    45  32  61 CALM      30.49S
$$

COZ069>075-270300-
...SAN LUIS VALLEY/SANGRE DE CRISTO MOUNTAINS...

CITY           SKY/WX    TMP DP  RH WIND       PRES   REMARKS
ALAMOSA        FAIR      57  42  57 SW6       30.24R
LA VETA PASS   FAIR      48  32  53 S8        30.41R
SAGUACHE       MOCLDY    57  43  58 E7        30.26R
$$

COZ035-036-038>040-270300-
...NORTHERN COLORADO FRONT RANGE...

CITY           SKY/WX    TMP DP  RH WIND       PRES   REMARKS
DENVER INTL AP MOCLDY    65  48  54 E20       30.09R
DMNS CITY PARK   N/A     65  44  45 CALM      30.08R
AURORA         PTCLDY    66  42  40 SE5       30.10R
FRONT RANGE AP PTCLDY    66  48  52 E17G25    30.11R
ERIE MUNI ARPT FAIR      69  39  33 CALM      30.07R
BOULDER MUN AP FAIR      70  43  37 SE3       30.07R
CENTENNIAL     FAIR      69  38  32 E6        30.11R
BROOMFIELD     MOCLDY    68  45  42 W6        30.10R
FORT COLLINS   FAIR      63  46  55 E8        30.08R
LONGMONT       FAIR      69  49  49 NE14      30.09R
$$

COZ041-046-047-076>085-087-088-270300-
...PIKES PEAK/PALMER DIVIDE AND SOUTHERN FOOTHILLS...

CITY           SKY/WX    TMP DP  RH WIND       PRES   REMARKS
COLO. SPRINGS  MOCLDY    65  46  50 S7        30.17R
A. F. ACADEMY  MOCLDY    63  46  54 SE2       30.17R
SCHRIEVER AFB  NOT AVBL
ELLICOTT       NOT AVBL
FALCON         CLOUDY    61  47  59 CALM      30.21R
FORT CARSON    FAIR      61  47  61 W3        30.13R
LIMON          FAIR      61  47  59 SE7       30.12R
MONUMENT HILL  FAIR      55  43  62 S5        30.21R
TRINIDAD       FAIR      67  49  52 SE6       30.11S
$$

COZ042>045-048>051-090-091-270300-
...NORTHEAST COLORADO...

CITY           SKY/WX    TMP DP  RH WIND       PRES   REMARKS
GREELEY ARPT   CLOUDY    63  52  67 SE8       30.08R
AKRON          FAIR      57  52  83 E10       30.10R
BURLINGTON     FAIR      62  51  67 E12       30.08R
WRAY           NOT AVBL
STERLING       FAIR      61  54  77 SE6       30.06R
HOLYOKE        FAIR      59  55  88 S7        30.05F
FORT MORGAN    FAIR      61  52  72 E10       30.08R
$$

COZ086-089-092>099-270300-
...SOUTHEAST COLORADO...

CITY           SKY/WX    TMP DP  RH WIND       PRES   REMARKS
PUEBLO         FAIR      75  46  35 E5        30.05R
LA JUNTA       FAIR      72  53  51 E8        30.03R
LAMAR          FAIR      73  52  47 S9        29.99S
SPRINGFIELD      N/A     64  60  87 S6        30.05R
$$




USA.gov is the U.S. government's official web portal to all federal, state and local government web resources and services.